AO-07 1 07530U 74089B 26175.31411375 -.00000038 00000-0 50599-4 0 9993 2 07530 101.9899 188.6350 0012633 116.8871 256.4434 12.53698145361419 UO-11 1 14781U 84021B 26174.86625253 .00001092 00000-0 11662-3 0 9994 2 14781 97.8059 140.3663 0008218 151.7331 208.4334 14.90797521258121 LO-19 1 20442U 90005G 26175.01929488 .00000083 00000-0 46428-4 0 9997 2 20442 98.8847 197.0132 0011515 180.6950 179.4219 14.34124888903371 AO-27 1 22825U 93061C 26175.13210451 .00000067 00000-0 42631-4 0 9999 2 22825 98.6877 242.5432 0009527 81.9186 278.3077 14.30943872707991 FO-29 1 24278U 96046B 26175.18698092 -.00000018 00000-0 14758-4 0 9991 2 24278 98.5235 23.0999 0350921 78.3218 285.7074 13.53274665474110 GO-32 1 25397U 98043D 26174.94820125 .00000038 00000-0 36579-4 0 9996 2 25397 99.0070 167.8775 0001390 150.1095 210.0162 14.24429485452295 ISS 1 25544U 98067A 26175.15560926 .00007363 00000-0 13975-3 0 9992 2 25544 51.6326 265.6000 0004427 224.4953 135.5681 15.49396189572839 NO-44 1 26931U 01043C 26175.21369351 .00000060 00000-0 53323-4 0 9996 2 26931 67.0495 226.0984 0006054 264.9653 95.0758 14.31958084291453 SO-50 1 27607U 02058C 26175.03336570 .00000757 00000-0 10682-3 0 9994 2 27607 64.5518 107.8036 0075096 261.1879 98.0718 14.83059331265473 CO-55 1 27844U 03031E 26175.27271409 .00000238 00000-0 12196-3 0 9990 2 27844 98.6736 183.7425 0009959 157.9715 202.1894 14.24339464192685 RS-22 1 27939U 03042A 26175.29560539 .00000339 00000-0 60456-4 0 9999 2 27939 98.3477 359.8550 0009988 244.1261 288.9539 14.73475746216594 CO-65 1 32785U 08021C 26175.20916588 .00004434 00000-0 28054-3 0 9993 2 32785 97.8279 156.7737 0009138 17.8170 342.3376 15.09511070986257 CO-66 1 32791U 08021J 26175.25105171 .00016147 00000-0 50931-3 0 9996 2 32791 97.7521 173.4867 0000305 266.0101 94.1105 15.32959787988376 RS-30 1 32953U 08025A 26175.26100919 .00000088 00000-0 56238-3 0 9999 2 32953 82.5048 351.0390 0018628 297.6731 62.2459 12.43179909820577 SRMSAT 1 37841U 11058D 26175.23753896 .00000359 00000-0 51087-4 0 9994 2 37841 19.9735 16.7943 0011708 281.6878 234.4486 14.11576866758811 ZACUBE-1 1 39417U 13066B 26175.13942580 .00002435 00000-0 19122-3 0 9995 2 39417 97.8056 137.5120 0041739 223.8943 135.8962 15.01220001681770 Delfi-N3xt 1 39428U 13066N 26174.73676925 .00004560 00000-0 39888-3 0 9991 2 39428 97.8338 95.0419 0074117 183.3962 176.6765 14.95135175675609 GOMX-1 1 39430U 13066Q 26175.26760003 .00001230 00000-0 18985-3 0 9990 2 39430 97.6486 15.2832 0129949 55.0762 306.2573 14.69479948670955 LO-74 1 39440U 13066AA 26175.16357250 .00003255 00000-0 30265-3 0 9990 2 39440 97.8904 124.1710 0057788 6.1369 354.0545 14.93813506678035 AO-73 1 39444U 13066AE 26174.48649236 .00004811 00000-0 29949-3 0 9992 2 39444 97.8270 146.0634 0036321 179.4025 180.7253 15.09547873680612 DTUSAT-2 1 40030U 14033W 26175.23873715 .00005507 00000-0 29799-3 0 9991 2 40030 98.0867 173.4137 0007305 198.1946 161.9024 15.15092535653751 LILACSAT-2 1 40908U 15049K 26175.30212674 .00015960 00000-0 26996-3 0 9992 2 40908 97.4643 212.4145 0006111 212.6899 147.3975 15.51649967596853 Horyu-4 1 41340U 16012D 26174.98997884 .00706661 22541-3 11007-2 0 9998 2 41340 30.9834 28.8335 0007997 314.6456 45.3555 16.02876196571906 Lapan A3 1 41603U 16040E 26175.30544207 .00003001 00000-0 95945-4 0 9991 2 41603 97.1491 171.2171 0010012 1.3170 358.8097 15.33143825555902 CAS-2T 1 41847U 16066G 26175.16662429 .00001410 00000-0 20428-3 0 9995 2 41847 98.3820 250.8232 0342895 108.3774 255.5023 14.44714489505805 TechnoSat 1 42829U 17042E 26175.16401237 .00002626 00000-0 18853-3 0 9998 2 42829 97.4296 332.5568 0019346 72.5858 287.7482 15.04998853487755 AO-91 1 43017U 17073E 26175.15325566 .00006039 00000-0 26536-3 0 9990 2 43017 97.4700 42.2254 0148775 304.9888 53.7450 15.12802211466446 S-Net D 1 43186U 18014G 26174.99334955 .00004138 00000-0 21439-3 0 9991 2 43186 97.5358 79.7411 0008219 8.7119 351.4256 15.16727237459797 S-Net B 1 43187U 18014H 26175.20285968 .00004541 00000-0 23506-3 0 9991 2 43187 97.5364 79.9363 0008628 2.2761 357.8510 15.16699503459820 S-Net A 1 43188U 18014J 26175.19010870 .00004081 00000-0 21139-3 0 9997 2 43188 97.5375 80.1335 0008546 3.4432 356.6858 15.16737154459820 S-Net C 1 43189U 18014K 26175.20677126 .00004585 00000-0 23732-3 0 9993 2 43189 97.5391 80.2262 0009636 354.0800 6.0317 15.16691363458370 Ten-Koh 1 43677U 18084G 26175.24741688 .00001274 00000-0 99633-4 0 9997 2 43677 98.0762 7.9090 0011404 93.8942 266.3585 15.02962897417221 PO-101 1 43678U 18084H 26175.30540476 .00001720 00000-0 14163-3 0 9997 2 43678 98.1204 11.8236 0012946 147.7139 212.4879 15.00478828417287 QO-100 1 43700U 18090A 26175.17555332 .00000152 00000-0 00000-0 0 9992 2 43700 0.0162 323.1081 0002080 165.5076 232.7069 1.00273279 27743 MinXSS-2 1 43758U 18099A 26175.20651980 .00033748 00000-0 66053-3 0 9994 2 43758 97.4534 251.6982 0007236 228.2475 131.8157 15.47316970415214 AO-95 1 43770U 18099N 26175.15597508 .00009674 00000-0 36928-3 0 9996 2 43770 97.4382 235.3767 0007299 330.8169 29.2661 15.26836482414286 SNUSat 2 1 43782U 18099AA 26175.10558180 .00006958 00000-0 30815-3 0 9998 2 43782 97.4059 228.3830 0008558 269.4568 90.5688 15.21924318414081 SnugLite 1 43784U 18099AC 26175.08876981 .00010485 00000-0 39458-3 0 9991 2 43784 97.3868 229.3010 0001458 236.9546 123.1553 15.27306223414379 ITASat 1 1 43786U 18099AE 26174.87224046 .00005463 00000-0 26291-3 0 9999 2 43786 97.4030 226.2505 0011387 335.8240 24.2459 15.19126206413928 EAGLET 1 1 43790U 18099AJ 26175.12953031 .00003286 00000-0 18965-3 0 9996 2 43790 97.4230 224.6143 0010001 328.8929 31.1709 15.12983619413380 ESEO 1 43792U 18099AL 26175.09838027 .00001205 00000-0 90708-4 0 9996 2 43792 97.3976 212.1910 0010493 316.2627 43.7767 15.04268456412842 JO-97 1 43803U 18099AX 26175.14190018 .00015119 00000-0 46379-3 0 9999 2 43803 97.4133 238.0008 0004834 230.5921 129.4894 15.33842498414697 Suomi 100 1 43804U 18099AY 26175.14570907 .00010718 00000-0 38798-3 0 9995 2 43804 97.4189 235.5135 0008566 249.8041 110.2278 15.28552873414484 ISAT 1 43879U 18111D 26174.55295329 .00082802 00000-0 79540-3 0 9991 2 43879 97.5872 110.2675 0002605 165.3365 194.7971 15.66333302412169 UWE-4 1 43880U 18111E 26175.07461358 .00030603 00000-0 61683-3 0 9999 2 43880 97.5841 103.7842 0004486 307.8238 52.2604 15.46500339411840 Sparrow 1 43881U 18111F 26174.35634660 .00149766 00000-0 94570-3 0 9990 2 43881 97.6095 115.7899 0004618 124.5126 235.6575 15.76173004412343 Prox-1 1 44339U 19036A 26174.88504997 .00012661 00000-0 12282-2 0 9995 2 44339 23.9951 69.5029 0005849 112.8625 247.2493 14.90752676374479 Taurus 1 1 44530U 19059C 26175.31156941 .00004299 00000-0 69086-3 0 9997 2 44530 98.6424 340.5816 0007237 290.3157 69.7271 14.72153562359694 TO-108 1 44881U 19093C 26175.24717679 .00000713 00000-0 86392-4 0 9994 2 44881 97.7530 247.3073 0015063 66.0659 294.2133 14.86529999352467 RS-44 1 44909U 19096E 26175.19786970 .00000035 00000-0 87621-4 0 9995 2 44909 82.5224 335.0455 0218408 127.8374 234.2715 12.79748960303240 SALSAT 1 46495U 20068K 26175.27497564 .00006623 00000-0 23163-3 0 9994 2 46495 97.8854 178.7714 0007802 277.9982 82.0372 15.29885766316444 CSS (TIANHE-1) 1 48274U 21035A 26175.27077788 .00020499 00000-0 23936-3 0 9993 2 48274 41.4689 278.8848 0007696 138.8892 221.2528 15.61092232294278 CUTE 1 49263U 21088D 26175.21813702 .00266732 29870-4 67918-3 0 9998 2 49263 97.4172 275.2045 0007667 220.2965 139.7743 15.95360523263670 TeikyoSat 4 1 49396U 21102B 26175.08092716 .00001556 00000-0 10074-3 0 9993 2 49396 97.3666 204.2963 0010339 269.1593 90.8452 15.09529088253765 Z-Sat 1 49399U 21102E 26175.24992905 .00003528 00000-0 17473-3 0 9994 2 49399 97.3326 210.3586 0015448 217.8039 142.2111 15.18306181254516 KOSEN 1 1 49402U 21102H 26175.08841658 .00006486 00000-0 24747-3 0 9997 2 49402 97.3188 217.1116 0013946 175.9347 184.2008 15.26916621255076 HO-113 1 50466U 21131B 26175.27419363 .00000328 00000-0 11504-3 0 9992 2 50466 98.4979 267.6255 0005374 80.3481 279.8315 14.41362651236138 SNUGLITE 2 1 52899U 22065F 26175.13738191 .00000775 00000-0 15583-3 0 9996 2 52899 98.2210 319.9558 0007521 12.4416 347.6971 14.64358357212019 UmKA 1 (RS40S) 1 57172U 23091G 26175.26553454 .00005303 00000-0 24248-3 0 9996 2 57172 97.5050 233.9355 0014343 95.8193 264.4678 15.20887439165084 CubeBel-2 (EU11S) 1 57175U 23091K 26175.25077841 .00012632 00000-0 44600-3 0 9996 2 57175 97.5052 238.5309 0011209 93.3026 266.9497 15.29305587165382 RS-38S 1 57189U 23091Z 26175.24800432 .00015134 00000-0 43036-3 0 9992 2 57189 97.5092 244.8751 0007801 56.2323 303.9663 15.36219101165777 SONATE-2 1 59112U 24043Q 26175.26319483 .00037305 00000-0 47564-3 0 9995 2 59112 97.5534 326.0961 0007286 172.1675 187.9696 15.59193494128997 GRBBeta 1 60237U 24128C 26175.18863118 .00002558 00000-0 18316-3 0 9994 2 60237 61.9881 191.7006 0039742 136.1475 224.2785 15.06673239107324 Curium One 1 60242U 24128H 26175.17766253 .00005488 00000-0 31995-3 0 9994 2 60242 61.9769 181.0139 0039100 131.8289 228.6156 15.12582390107512 ROBUSTA-3A 1 60243U 24128J 26175.14631881 .00003769 00000-0 22904-3 0 9990 2 60243 61.9847 183.6324 0040403 129.5028 230.9651 15.11729530107476 CatSat 1 60246U 24125J 26175.07182397 .00063948 00000-0 79694-3 0 9998 2 60246 97.2088 27.6657 0022441 155.4199 204.8133 15.59399365108469 HYPERVIEW-1G (RS66S) 1 61772U 24199AP 26175.23430535 .00142836 00000-0 84550-3 0 9993 2 61772 97.2862 55.3183 0005461 194.3108 165.8005 15.77659716135789 AO-123 1 61781U 24199AY 26175.26726105 .00006696 00000-0 19440-3 0 9996 2 61781 97.3000 43.8743 0011939 285.0984 74.8939 15.35762632135012 JINJUSat 1B 1 63210U 25052A 26175.19277766 .00015186 00000-0 46798-3 0 9990 2 63210 97.4001 71.9576 0005300 76.2271 283.9561 15.33693102 71176 NUSHSAT 1 1 63211U 25052B 26175.02970252 .00018662 00000-0 53041-3 0 9994 2 63211 97.3976 72.3835 0005109 80.3597 279.8224 15.36203028 71193 TEVEL2-4 1 63213U 25052D 26175.15869639 .00016841 00000-0 50050-3 0 9990 2 63213 97.3899 71.5621 0004948 90.1777 270.0033 15.34822563 71181 TEVEL2-5 1 63214U 25052E 26174.98437719 .00016638 00000-0 49735-3 0 9993 2 63214 97.3894 71.3335 0004880 91.6440 268.5362 15.34639902 71152 TEVEL2-6 1 63215U 25052F 26175.19247918 .00016897 00000-0 50551-3 0 9993 2 63215 97.3902 71.5263 0004712 91.8606 268.3176 15.34612208 71189 TEVEL2-1 1 63217U 25052H 26174.96304379 .00015378 00000-0 46842-3 0 9995 2 63217 97.3870 70.9129 0004942 100.4498 259.7302 15.34061026 71136 TEVEL2-3 1 63218U 25052J 26174.95743908 .00015464 00000-0 47017-3 0 9991 2 63218 97.3876 70.9298 0004852 100.9401 259.2388 15.34118051 71139 TEVEL2-2 1 63219U 25052K 26174.96331783 .00015328 00000-0 46676-3 0 9996 2 63219 97.3875 70.9156 0004967 100.9332 259.2469 15.34070494 71130 TEVEL2-9 1 63237U 25052AD 26175.21077817 .00014542 00000-0 47113-3 0 9994 2 63237 97.3939 70.5233 0008237 111.7825 248.4294 15.32082358 71107 TEVEL2-7 1 63238U 25052AE 26174.66511354 .00012446 00000-0 40771-3 0 9996 2 63238 97.3941 69.8919 0008290 113.4971 246.7143 15.31764216 71016 TEVEL2-8 1 63239U 25052AF 26175.19604222 .00014524 00000-0 47520-3 0 9991 2 63239 97.3938 70.3983 0008326 112.7098 247.5025 15.31766604 71092 SPIRONE 1 66657U 25274H 26175.08852025 .00002057 00000-0 20026-3 0 9998 2 66657 97.7480 104.2810 0012013 359.6233 0.4976 14.93569734 31259 K-HERO 1 66660U 25274L 26174.28747161 .00001913 00000-0 18462-3 0 9998 2 66660 97.7488 103.6569 0014071 5.3342 354.8026 14.93982761 31146 SNUGLITE-III DURI 1 66661U 25274M 26174.54299022 .00001613 00000-0 15630-3 0 9997 2 66661 97.7484 103.9296 0014654 5.2171 354.9199 14.94019114 31189 SAKHACUBE-CHOLBON 1 67290U 25313AU 26175.18144100 .00008004 00000-0 32335-3 0 9999 2 67290 97.3935 250.1293 0008176 339.1778 20.9126 15.24992892 27048 RS95S (QMR-KWT-2) 1 67291U 25313AV 26175.16317241 .00012366 00000-0 47663-3 0 9992 2 67291 97.3929 250.3011 0007605 336.0920 23.9964 15.26444539 27059 Ten-Koh2 1 68261U 25241B 26174.70466335 .00004001 00000-0 17675-3 0 9995 2 68261 51.6688 288.6110 0005581 160.8992 199.2196 15.23964299 15901 JACK-002 1 68417U 26067B 26175.14220559 .00005425 00000-0 25900-3 0 9991 2 68417 97.4563 133.6466 0000677 168.9989 191.1260 15.19465252 13005 DISCO 2 1 68431U 26067R 26174.63785580 .00006680 00000-0 32100-3 0 9994 2 68431 97.4595 133.1368 0002125 31.6445 328.4917 15.19154403 12922 HADES-SA (SpinnyONE) 1 68446U 26067AG 26175.13794182 .00016537 00000-0 78554-3 0 9999 2 68446 97.4407 133.3305 0009051 64.2263 295.9905 15.19264763 12980 PARUS-6U1 1 68456U 26067AS 26175.11191134 .00004975 00000-0 25086-3 0 9991 2 68456 97.4549 133.3687 0007073 53.4995 306.6889 15.17578800 12984 SAL-E 1 68458U 26067AU 26174.64473256 .00006167 00000-0 30785-3 0 9995 2 68458 97.4474 132.8409 0007610 62.2699 297.9306 15.17833271 12910 FSI-SAT 2 1 68792U 26088A 26175.12547340 .00003140 00000-0 21390-3 0 9999 2 68792 97.5073 324.2112 0015992 85.3718 274.9336 15.06882649 9336 OrigamiSat 2 1 68795U 26088D 26175.12573301 .00010016 00000-0 63748-3 0 9991 2 68795 97.5073 324.3681 0015922 59.3454 300.9342 15.08870979 9345 ARICA 2 1 68796U 26088E 26175.19295127 .00003162 00000-0 20627-3 0 9999 2 68796 97.5065 324.4190 0016860 58.4089 301.8783 15.08475098 9352 WASEDA-SAT-ZERO-II 1 68797U 26088F 26174.85600876 .00004487 00000-0 28923-3 0 9991 2 68797 97.5062 324.1007 0016564 59.1472 301.1383 15.08705173 9303 MANGARO-II-Piscus 1 68798U 26088G 26174.91220510 .00003138 00000-0 20257-3 0 9996 2 68798 97.5070 324.1864 0020171 60.9183 299.4062 15.08824043 9314 IO-86 1 40931U 25360.30710720 .00000000 00000-0 12800-3 0 00 2 40931 6.0006 332.5373 0012733 338.8432 8.1437 14.79075515 01 LILIUM-4 1 71922C 26067AC 26089.50133053 -.00014632 00000 0 -74472-3 0 04 2 71922 97.4497 49.1617 0004341 5.9603 355.7042 15.16896692 16